KHY1235 RPVE-RPLL

Flight info

Callsign KHY1235
Flight time 0h 32m
Altitude 24000
Route MINOR8A MINOR B473 LAIYA LAIYA3R
Aircraft A21N/M-SDE3FGHIRWY/LB1

Departure

Time 2026-04-26 15:37
Airport Godofredo P. Ramos Airport (RPVE)

Arrival

Time 2026-04-26 16:09
Airport Ninoy Aquino International Airport (RPLL)
Time Latitude Longitude Altitude Speed Heading
2026-04-26 15:08 11.92610 121.96276 32 ft 0 kts 154°
2026-04-26 15:28 11.92610 121.96275 32 ft 0 kts 154°
2026-04-26 15:29 11.92622 121.96270 32 ft 2 kts 154°
2026-04-26 15:29 11.92636 121.96263 32 ft 2 kts 166°
2026-04-26 15:29 11.92660 121.96273 32 ft 0 kts 240°
2026-04-26 15:30 11.92663 121.96280 32 ft 0 kts 243°
2026-04-26 15:31 11.92663 121.96279 32 ft 0 kts 243°
2026-04-26 15:32 11.92657 121.96268 32 ft 3 kts 242°
2026-04-26 15:32 11.92639 121.96219 32 ft 0 kts 266°
2026-04-26 15:32 11.92641 121.96214 32 ft 1 kts 298°
2026-04-26 15:33 11.92658 121.96197 32 ft 4 kts 327°
2026-04-26 15:33 11.92693 121.96178 32 ft 6 kts 332°
2026-04-26 15:33 11.92742 121.96151 32 ft 9 kts 332°
2026-04-26 15:33 11.92796 121.96107 32 ft 11 kts 281°
2026-04-26 15:34 11.92768 121.96029 32 ft 13 kts 243°
2026-04-26 15:34 11.92722 121.95940 32 ft 15 kts 243°
2026-04-26 15:34 11.92671 121.95837 32 ft 17 kts 243°
2026-04-26 15:34 11.92610 121.95715 32 ft 20 kts 243°
2026-04-26 15:35 11.92542 121.95580 32 ft 22 kts 242°
2026-04-26 15:35 11.92469 121.95436 32 ft 23 kts 243°
2026-04-26 15:35 11.92389 121.95279 32 ft 25 kts 242°
2026-04-26 15:35 11.92318 121.95136 32 ft 22 kts 243°
2026-04-26 15:36 11.92237 121.95021 32 ft 10 kts 297°
2026-04-26 15:36 11.92278 121.95057 32 ft 17 kts 61°
2026-04-26 15:36 11.92470 121.95435 32 ft 101 kts 63°
2026-04-26 15:36 11.92899 121.96289 196 ft 152 kts 64°
2026-04-26 15:37 11.93355 121.97217 1011 ft 146 kts 63°
2026-04-26 15:37 11.93784 121.98116 1825 ft 142 kts 63°
2026-04-26 15:37 11.94232 121.99026 2331 ft 153 kts 61°
2026-04-26 15:37 11.94747 122.00053 2795 ft 170 kts 61°
2026-04-26 15:38 11.95123 122.00799 3122 ft 181 kts 61°
2026-04-26 15:38 11.95728 122.01985 3623 ft 198 kts 59°
2026-04-26 15:38 11.97081 122.03355 4296 ft 220 kts 30°
2026-04-26 15:38 11.98447 122.04081 4991 ft 227 kts 25°
2026-04-26 15:39 11.99908 122.04797 5542 ft 247 kts 24°
2026-04-26 15:39 12.01015 122.05338 5875 ft 263 kts 24°
2026-04-26 15:39 12.03405 122.06525 7064 ft 276 kts 24°
2026-04-26 15:39 12.03993 122.06821 7387 ft 277 kts 24°
2026-04-26 15:40 12.07065 122.08370 9030 ft 286 kts 24°
2026-04-26 15:40 12.08304 122.08996 9648 ft 290 kts 24°
2026-04-26 15:40 12.10893 122.10302 10895 ft 298 kts 24°
2026-04-26 15:40 12.12864 122.11292 11793 ft 304 kts 24°
2026-04-26 15:41 12.14875 122.12304 12689 ft 310 kts 24°
2026-04-26 15:41 12.16901 122.13327 13599 ft 314 kts 25°
2026-04-26 15:41 12.18983 122.14381 14516 ft 318 kts 25°
2026-04-26 15:41 12.21056 122.15433 15399 ft 322 kts 25°
2026-04-26 15:42 12.23189 122.16515 16281 ft 327 kts 25°
2026-04-26 15:42 12.25350 122.17612 17147 ft 331 kts 25°
2026-04-26 15:42 12.27510 122.18710 17986 ft 335 kts 25°
2026-04-26 15:42 12.29716 122.19830 18812 ft 339 kts 25°
2026-04-26 15:43 12.31948 122.20962 19617 ft 343 kts 25°
2026-04-26 15:43 12.33475 122.21736 20148 ft 345 kts 24°
2026-04-26 15:43 12.39148 122.21871 21825 ft 347 kts 330°
2026-04-26 15:44 12.40588 122.20967 22325 ft 348 kts 324°
2026-04-26 15:44 12.45563 122.17431 23746 ft 357 kts 324°
2026-04-26 15:44 12.47728 122.15897 23921 ft 371 kts 324°
2026-04-26 15:45 12.52537 122.12524 23933 ft 415 kts 324°
2026-04-26 15:45 12.55081 122.10748 23934 ft 434 kts 324°
2026-04-26 15:46 12.60589 122.06908 23936 ft 468 kts 324°
2026-04-26 15:46 12.63492 122.04886 23934 ft 483 kts 324°
2026-04-26 15:46 12.66451 122.02824 23934 ft 490 kts 324°
2026-04-26 15:46 12.67433 122.02140 23933 ft 491 kts 324°
2026-04-26 15:47 12.72434 121.98658 23932 ft 492 kts 324°
2026-04-26 15:47 12.78388 121.94512 23932 ft 492 kts 324°
2026-04-26 15:47 12.81382 121.92426 23932 ft 492 kts 324°
2026-04-26 15:48 12.84363 121.90349 23932 ft 492 kts 324°
2026-04-26 15:48 12.87365 121.88257 23932 ft 492 kts 324°
2026-04-26 15:48 12.90362 121.86167 23932 ft 492 kts 324°
2026-04-26 15:48 12.93331 121.84096 23932 ft 492 kts 324°
2026-04-26 15:49 12.95326 121.82705 23932 ft 492 kts 324°
2026-04-26 15:49 12.98319 121.80617 23932 ft 492 kts 324°
2026-04-26 15:49 13.02321 121.77826 23932 ft 493 kts 324°
2026-04-26 15:49 13.05286 121.75755 23932 ft 494 kts 324°
2026-04-26 15:50 13.08313 121.73643 23932 ft 494 kts 324°
2026-04-26 15:50 13.11326 121.71539 23931 ft 495 kts 324°
2026-04-26 15:50 13.14362 121.69432 23932 ft 496 kts 324°
2026-04-26 15:50 13.17460 121.67282 23932 ft 496 kts 324°
2026-04-26 15:51 13.20428 121.65218 23926 ft 496 kts 324°
2026-04-26 15:51 13.23484 121.63092 23665 ft 497 kts 324°
2026-04-26 15:51 13.26541 121.60960 23396 ft 495 kts 324°
2026-04-26 15:51 13.29527 121.58874 23104 ft 493 kts 324°
2026-04-26 15:52 13.32522 121.56778 22766 ft 491 kts 324°
2026-04-26 15:52 13.34494 121.55396 22515 ft 489 kts 324°
2026-04-26 15:52 13.38398 121.52660 21905 ft 484 kts 324°
2026-04-26 15:52 13.40382 121.51269 21565 ft 481 kts 324°
2026-04-26 15:53 13.44273 121.48540 20877 ft 475 kts 324°
2026-04-26 15:53 13.47128 121.46536 20364 ft 471 kts 324°
2026-04-26 15:53 13.49033 121.45198 20018 ft 468 kts 324°
2026-04-26 15:53 13.52809 121.42546 19331 ft 462 kts 324°
2026-04-26 15:54 13.54641 121.41259 18995 ft 460 kts 324°
2026-04-26 15:54 13.58119 121.38808 18357 ft 454 kts 323°
2026-04-26 15:54 13.60677 121.36977 17914 ft 451 kts 323°
2026-04-26 15:54 13.63261 121.35117 17486 ft 447 kts 323°
2026-04-26 15:55 13.65788 121.33285 17040 ft 444 kts 323°
2026-04-26 15:55 13.68291 121.31464 16580 ft 440 kts 323°
2026-04-26 15:55 13.70755 121.29672 16117 ft 436 kts 323°
2026-04-26 15:55 13.73208 121.27891 15652 ft 433 kts 323°
2026-04-26 15:56 13.75654 121.26118 15185 ft 429 kts 323°
2026-04-26 15:56 13.78081 121.24361 14717 ft 425 kts 323°
2026-04-26 15:56 13.79696 121.23192 14403 ft 423 kts 323°
2026-04-26 15:56 13.82856 121.20903 13780 ft 418 kts 323°
2026-04-26 15:57 13.85215 121.19195 13313 ft 415 kts 323°
2026-04-26 15:57 13.87570 121.17489 12837 ft 412 kts 323°
2026-04-26 15:57 13.89889 121.15810 12359 ft 409 kts 323°
2026-04-26 15:57 13.91445 121.14684 12013 ft 403 kts 324°
2026-04-26 15:58 13.93695 121.13057 11478 ft 393 kts 323°
2026-04-26 15:58 13.96610 121.10950 10869 ft 379 kts 323°
2026-04-26 15:58 13.98732 121.09415 10400 ft 370 kts 323°
2026-04-26 15:58 14.00813 121.07907 9945 ft 362 kts 323°
2026-04-26 15:59 14.02845 121.06435 9515 ft 353 kts 323°
2026-04-26 15:59 14.04155 121.05485 9265 ft 348 kts 323°
2026-04-26 15:59 14.06754 121.03599 8685 ft 339 kts 323°
2026-04-26 15:59 14.08655 121.02219 8276 ft 333 kts 323°
2026-04-26 16:00 14.10532 121.00857 7881 ft 327 kts 323°
2026-04-26 16:00 14.11758 120.99972 7591 ft 324 kts 323°
2026-04-26 16:00 14.13601 120.98645 7202 ft 318 kts 323°
2026-04-26 16:00 14.15389 120.97355 6820 ft 313 kts 323°
2026-04-26 16:01 14.17156 120.96076 6460 ft 307 kts 323°
2026-04-26 16:01 14.19434 120.94425 5988 ft 300 kts 323°
2026-04-26 16:01 14.20564 120.93604 5768 ft 296 kts 323°
2026-04-26 16:01 14.22783 120.91991 5314 ft 289 kts 323°
2026-04-26 16:02 14.23860 120.91206 5179 ft 282 kts 324°
2026-04-26 16:02 14.25941 120.89697 5000 ft 267 kts 323°
2026-04-26 16:02 14.26936 120.88977 4996 ft 256 kts 324°
2026-04-26 16:02 14.27897 120.88337 4973 ft 247 kts 328°
2026-04-26 16:03 14.30376 120.86885 4554 ft 240 kts 330°
2026-04-26 16:03 14.31818 120.86056 4332 ft 235 kts 330°
2026-04-26 16:03 14.33218 120.85252 4127 ft 229 kts 330°
2026-04-26 16:03 14.34596 120.84457 3929 ft 224 kts 330°
2026-04-26 16:04 14.35922 120.83692 3744 ft 218 kts 330°
2026-04-26 16:04 14.37237 120.82928 3565 ft 217 kts 330°
2026-04-26 16:04 14.38560 120.82166 3312 ft 220 kts 332°
2026-04-26 16:04 14.40024 120.81818 3011 ft 216 kts
2026-04-26 16:05 14.41380 120.82407 2997 ft 212 kts 45°
2026-04-26 16:05 14.42149 120.83662 2999 ft 209 kts 75°
2026-04-26 16:05 14.42489 120.85116 3003 ft 210 kts 81°
2026-04-26 16:05 14.42770 120.86601 2928 ft 211 kts 77°
2026-04-26 16:06 14.43229 120.88033 2689 ft 210 kts 69°
2026-04-26 16:06 14.43872 120.89397 2408 ft 209 kts 63°
2026-04-26 16:06 14.44579 120.90679 2132 ft 207 kts 61°
2026-04-26 16:06 14.45308 120.91961 1908 ft 201 kts 61°
2026-04-26 16:07 14.45765 120.92767 1785 ft 192 kts 62°
2026-04-26 16:08 14.48597 120.97870 594 ft 137 kts 62°
2026-04-26 16:08 14.49067 120.98717 417 ft 137 kts 61°
2026-04-26 16:08 14.49536 120.99571 257 ft 136 kts 62°
2026-04-26 16:09 14.50005 121.00416 95 ft 135 kts 60°
2026-04-26 16:09 14.50423 121.01163 84 ft 97 kts 61°
2026-04-26 16:09 14.50639 121.01550 84 ft 45 kts 60°
2026-04-26 16:09 14.50815 121.01759 84 ft 29 kts 38°
2026-04-26 16:10 14.50935 121.01743 84 ft 18 kts 316°
2026-04-26 16:10 14.51026 121.01649 84 ft 18 kts 314°
2026-04-26 16:10 14.51120 121.01550 84 ft 19 kts 314°
2026-04-26 16:10 14.51214 121.01453 84 ft 14 kts 315°
2026-04-26 16:11 14.51300 121.01455 84 ft 15 kts 45°
2026-04-26 16:11 14.51374 121.01538 84 ft 16 kts 46°
2026-04-26 16:11 14.51463 121.01614 84 ft 17 kts 40°
2026-04-26 16:11 14.51552 121.01704 84 ft 18 kts 45°
2026-04-26 16:12 14.51645 121.01783 84 ft 16 kts 19°
2026-04-26 16:12 14.51721 121.01751 84 ft 9 kts 302°
2026-04-26 16:12 14.51669 121.01690 84 ft 0 kts 203°
2026-04-26 16:13 14.51666 121.01688 84 ft 0 kts 203°
2026-04-26 16:13 14.51664 121.01688 84 ft 0 kts 203°